Location: Unspecified
(0.0000°N, 0.0000°E)
Time: 23:52:57
(UTC+00:00)

Courier 1B Rocket - Pass Details

Date: 09 October 2020
Orbit: 920 x 1202 km, 28.2° (Epoch: 28 October)

Event Time Altitude Azimuth Distance (km) Brightness Sun altitude
Rises 10:08:41 0° 300° (WNW) 3,549 7.7 64.6°
Reaches altitude 10° 10:11:16 10° 300° (WNW) 2,601 7.1 65.2°
Maximum altitude 10:17:30 89° 213° (SSW) 925 6.5 66.7°
Drops below altitude 10° 10:23:54 10° 120° (ESE) 2,666 7.8 68.2°
Sets 10:26:35 0° 120° (ESE) 3,644 8.3 68.9°
